FW4098 Weather Reports


Display with metric or nautical units.
time (UTC)temp
F
wind
direction
speed
MPH
gust
MPH
rain 1hr
in
rain 24hr
in
rain mn
in
humidity
%
barometer
mb
20260906213033 101 360 3.0 12.0 0.00 0.00 0.00 36 1009.4
20260906211533 101 360 7.0 13.0 0.00 0.00 0.00 35 1009.6
20260906210029 102 360 5.0 14.0 0.00 0.00 0.00 35 1009.8
20260906204528 101 360 4.0 12.0 0.00 0.00 0.00 36 1009.9
20260906203027 101 360 6.0 14.0 0.00 0.00 0.00 34 1010.0
20260906201526 101 360 5.0 14.0 0.00 0.00 0.00 35 1010.2
20260906200022 102 360 10.0 16.0 0.00 0.00 0.00 35 1010.5
20260906194519 102 360 5.0 13.0 0.00 0.00 0.00 34 1010.6
20260906193018 101 360 7.0 14.0 0.00 0.00 0.00 35 1010.8
20260906191517 100 360 8.0 13.0 0.00 0.00 0.00 36 1010.8
20260906190015 100 360 5.0 17.0 0.00 0.00 0.00 38 1010.9
20260906184513 100 360 1.0 12.0 0.00 0.00 0.00 38 1011.1
20260906183016 99 360 6.0 13.0 0.00 0.00 0.00 39 1011.3
20260906181510 100 360 4.0 10.0 0.00 0.00 0.00 39 1011.6
20260906180008 99 360 4.0 12.0 0.00 0.00 0.00 41 1011.9
20260906174509 98 360 2.0 10.0 0.00 0.00 0.00 43 1012.1
20260906173004 98 360 7.0 12.0 0.00 0.00 0.00 42 1012.5
20260906171501 98 360 5.0 13.0 0.00 0.00 0.00 41 1012.6
20260906170121 97 360 6.0 11.0 0.00 0.00 0.00 44 1012.7
20260906164557 97 360 2.0 9.0 0.00 0.00 0.00 47 1012.7
20260906163050 95 360 4.0 9.0 0.00 0.00 0.00 48 1013.0
20260906161545 95 360 4.0 8.0 0.00 0.00 0.00 48 1013.0
20260906160041 94 360 0.0 4.0 0.00 0.00 0.00 48 1013.0
20260906154537 94 360 0.0 3.0 0.00 0.00 0.00 51 1013.1
20260906153032 92 360 0.0 3.0 0.00 0.00 0.00 53 1013.0
20260906151528 91 360 1.0 4.0 0.00 0.00 0.00 56 1012.9
20260906150024 89 360 0.0 1.0 0.00 0.00 0.00 57 1012.9
20260906144527 88 360 1.0 3.0 0.00 0.00 0.00 61 1012.9
20260906143013 86 360 0.0 5.0 0.00 0.00 0.00 64 1012.9
20260906141509 84 360 0.0 4.0 0.00 0.00 0.00 65 1012.9
20260906140009 83 360 2.0 5.0 0.00 0.00 0.00 67 1012.9
20260906134502 82 360 2.0 6.0 0.00 0.00 0.00 69 1012.9
20260906133103 80 360 2.0 4.0 0.00 0.00 0.00 70 1012.8
20260906131559 79 360 1.0 4.0 0.00 0.00 0.00 72 1012.7
20260906130054 78 360 0.0 3.0 0.00 0.00 0.00 74 1012.4
20260906124552 78 360 2.0 4.0 0.00 0.00 0.00 75 1012.2
20260906123119 78 360 2.0 3.0 0.00 0.00 0.00 75 1012.1
20260906121550 77 360 0.0 2.0 0.00 0.00 0.00 75 1011.8
20260906120050 77 360 0.0 3.0 0.00 0.00 0.00 75 1011.8
20260906114546 77 360 0.0 3.0 0.00 0.00 0.00 75 1011.7
20260906113044 78 360 0.0 3.0 0.00 0.00 0.00 74 1011.5
20260906111543 78 360 2.0 4.0 0.00 0.00 0.00 74 1011.5
20260906110041 78 360 0.0 0.0 0.00 0.00 0.00 74 1011.4
20260906104539 78 360 0.0 1.0 0.00 0.00 0.00 72 1011.3
20260906103038 79 360 1.0 2.0 0.00 0.00 0.00 71 1011.3
20260906101537 79 360 1.0 4.0 0.00 0.00 0.00 70 1011.4
20260906100035 79 360 0.0 1.0 0.00 0.00 0.00 70 1011.2
20260906094535 80 360 0.0 1.0 0.00 0.00 0.00 69 1011.1
20260906093033 80 360 0.0 0.0 0.00 0.00 0.00 69 1010.9
20260906091536 80 360 0.0 1.0 0.00 0.00 0.00 68 1011.1
20260906090032 80 360 0.0 3.0 0.00 0.00 0.00 67 1010.9
20260906084531 80 360 0.0 0.0 0.00 0.00 0.00 67 1010.7
20260906083034 80 360 0.0 0.0 0.00 0.00 0.00 67 1010.7
20260906081528 80 360 0.0 0.0 0.00 0.00 0.00 66 1010.7
20260906080030 80 360 0.0 0.0 0.00 0.00 0.00 65 1010.9
20260906074524 81 360 1.0 3.0 0.00 0.00 0.00 63 1010.7
20260906073022 81 360 0.0 1.0 0.00 0.00 0.00 62 1010.7
20260906071520 82 360 1.0 4.0 0.00 0.00 0.00 61 1010.9
20260906070018 82 360 0.0 5.0 0.00 0.00 0.00 61 1010.7
20260906064514 83 360 2.0 4.0 0.00 0.00 0.00 60 1011.0
20260906063013 83 360 2.0 5.0 0.00 0.00 0.00 59 1011.0
20260906061512 83 360 1.0 5.0 0.00 0.00 0.00 59 1011.1
20260906060010 83 360 3.0 5.0 0.00 0.00 0.00 58 1011.1
20260906054508 83 360 2.0 4.0 0.00 0.00 0.00 60 1011.2
20260906053007 83 360 1.0 4.0 0.00 0.00 0.00 60 1011.0
20260906051505 84 360 1.0 4.0 0.00 0.00 0.00 59 1011.0
20260906050001 85 360 0.0 3.0 0.00 0.00 0.00 58 1011.0
20260906044600 85 360 0.0 3.0 0.00 0.00 0.00 57 1011.1
20260906043103 86 360 0.0 4.0 0.00 0.00 0.00 54 1011.0
20260906041602 86 360 2.0 5.0 0.00 0.00 0.00 54 1011.0
20260906040059 86 360 2.0 5.0 0.00 0.00 0.00 54 1011.1
20260906034557 87 360 2.0 5.0 0.00 0.00 0.00 52 1011.1
20260906033110 88 360 3.0 8.0 0.00 0.00 0.00 52 1010.9
20260906031558 89 360 3.0 6.0 0.00 0.00 0.00 51 1010.7
20260906030057 89 360 2.0 5.0 0.00 0.00 0.00 50 1010.5
20260906024557 90 360 3.0 6.0 0.00 0.00 0.00 49 1010.4
20260906023057 90 360 3.0 8.0 0.00 0.00 0.00 48 1010.1
20260906021559 91 360 4.0 9.0 0.00 0.00 0.00 47 1009.8
20260906020106 92 360 3.0 9.0 0.00 0.00 0.00 45 1009.7
20260906014556 93 360 3.0 10.0 0.00 0.00 0.00 44 1009.3
20260906013107 93 360 4.0 9.0 0.00 0.00 0.00 43 1009.1
20260906011604 94 360 3.0 9.0 0.00 0.00 0.00 42 1009.0
20260906010053 95 360 4.0 9.0 0.00 0.00 0.00 41 1008.9
20260906004602 96 360 4.0 9.0 0.00 0.00 0.00 40 1008.8
20260906003057 97 360 5.0 13.0 0.00 0.00 0.00 39 1008.7
20260906001552 97 360 5.0 13.0 0.00 0.00 0.00 39 1008.6
20260906000057 98 360 4.0 13.0 0.00 0.00 0.00 38 1008.6
20260905234550 99 360 7.0 13.0 0.00 0.00 0.00 37 1008.5
20260905233050 99 360 7.0 14.0 0.00 0.00 0.00 37 1008.3
20260905231549 100 360 8.0 14.0 0.00 0.00 0.00 36 1008.3
20260905230048 100 360 7.0 12.0 0.00 0.00 0.00 35 1008.3
20260905224550 101 360 4.0 14.0 0.00 0.00 0.00 35 1008.3
20260905223043 100 360 5.0 14.0 0.00 0.00 0.00 35 1008.4
20260905221542 101 360 6.0 13.0 0.00 0.00 0.00 35 1008.4
20260905220040 101 360 4.0 11.0 0.00 0.00 0.00 34 1008.6
20260905214537 101 360 6.0 11.0 0.00 0.00 0.00 35 1008.6